Regional Weather Roundup
Issued by NWS

Home | Current Version | Previous Version | Graphics & Text | Print | Product List | Glossary On
Versions: 1 2 3 4 5 6 7 8 9 10 11 12 13 14 15 16 17 18 19 20 21 22 23 24 25 26 27 28 29 30 31 32 33 34 35 36 37 38 39 40 41 42 43 44 45 46 47 48 49 50
000
ASUS43 KIND 171609
RWRIN

WEATHER ROUNDUP FOR INDIANA
NATIONAL WEATHER SERVICE INDIANAPOLIS IN
1200 PM EDT TUE OCT 17 2017

NOTE: "FAIR" INDICATES FEW OR NO CLOUDS BELOW 12,000 FEET WITH NO
SIGNIFICANT WEATHER AND/OR OBSTRUCTIONS TO VISIBILITY.

* - STATION DOES NOT REPORT WEATHER SUCH AS PRECIPITATION OR FOG.

+ - STATION NOT QUALITY CONTROLLED BY THE NATIONAL WEATHER SERVICE.
    USE DATA WITH CAUTION...ESPECIALLY DEWPOINT AND RELATIVE
    HUMIDITY OBSERVATIONS.

INZ001>003-010>013-019-020-171700-
NORTHWEST INDIANA

CITY           SKY/WX    TMP DP  RH WIND       PRES   REMARKS
GARY /AIRPORT/ MOSUNNY   63  39  42 SW12G23   30.22F
KNOX *+        SUNNY     61  41  48 SW15G24   30.25S
LA PORTE +     SUNNY     60  43  52 SW13G21   30.24S
MICHIGAN CITY+ SUNNY     61  43  51 SW14G20   30.23F
MONTICELLO +   SUNNY     60  37  42 SW17G24   30.28F
RENSSELAER +   SUNNY     63  28  27 SW13      30.27F
VALPARAISO     SUNNY     64  43  46 SW18G26   30.23F

$$

LMZ046-743>745-171700-
SOUTHERN LAKE MICHIGAN

STATION/POSITION TIME  TEMP    WIND        PRES    WAVE
                       AIR SEA DIR/SP/G            HT
                 (UTC) (F)     (DEG/KT/KT) (MB)    (FT)
BURNS HARBOR     1540   60     220/ 19/ 23 1023.7S
MICHIGAN CITY    1540   59     200/ 18/ 21   N/A
5NW MICH CITY    1600   59 57  220/ 14/ 17   N/A     3

$$

INZ004-005-014>016-021>024-171700-
NORTH CENTRAL INDIANA

CITY           SKY/WX    TMP DP  RH WIND       PRES   REMARKS
ELKHART        SUNNY     61  41  48 SW12      30.24S
GOSHEN         SUNNY     60  40  47 SW14      30.25S
LOGANSPORT +   SUNNY     59  39  47 SW20G25   30.30F
PERU/GRISSOM   SUNNY     62  41  45 SW20      30.29F
SOUTH BEND     SUNNY     60  42  51 SW14      30.24F
WARSAW +       SUNNY     61  41  48 SW10G18   30.26F

$$

INZ006>009-017-018-025>027-171700-
NORTHEAST INDIANA

CITY           SKY/WX    TMP DP  RH WIND       PRES   REMARKS
AUBURN +       SUNNY     61  37  41 SW12G22   30.27F
FORT WAYNE     MOSUNNY   62  38  40 SW21      30.28F
HUNTINGTON +   SUNNY     61  37  41 W15G23    30.28F
KENDALLVILLE + SUNNY     60  41  50 SW10      30.26F

$$

INZ028-029-035-036-043>045-051>053-171700-
WEST CENTRAL INDIANA

CITY           SKY/WX    TMP DP  RH WIND       PRES   REMARKS
GREENCASTLE +  SUNNY     59  37  44 SW3       30.36S
LAFAYETTE      NOT AVBL
TERRE HAUTE    SUNNY     61  40  45 S15       30.35F

$$

INZ030>032-037>040-046>048-054>057-064-065-171700-
CENTRAL INDIANA

CITY           SKY/WX    TMP DP  RH WIND       PRES   REMARKS
CP ATTERBURY + SUNNY     61  37  41 S9        30.37S
COLUMBUS       MOSUNNY  N/A N/A N/A S9        30.38S
FISHERS *+     SUNNY     59  45  58 W10G17    30.34F
FRANKFORT +    MOSUNNY   64  40  41 SW16G23   30.33S
GREENWOOD *+   SUNNY     65  41  42 SW9       30.36F
INDIANAPOLIS   MOSUNNY   61  39  44 SW15      30.35F
-EAGLE CREEK   SUNNY     61  39  44 SW9       30.34S
KOKOMO +       SUNNY     62  39  42 SW20      30.31F
MT COMFORT *+  SUNNY     61  45  55 SW14      30.34F
SHELBYVILLE    SUNNY     62  38  40 SW9       30.35F
ZIONSVILLE +   SUNNY     60  39  46 SW12G18   30.34S

$$

INZ033-034-041-042-049-050-058-059-171700-
EAST CENTRAL INDIANA

CITY           SKY/WX    TMP DP  RH WIND       PRES   REMARKS
MUNCIE         SUNNY     62  37  39 SW13G20   30.32F
RICHMOND +     SUNNY     59  37  44 SW13      30.36S

$$

INZ060-061-067>069-081>083-085>088-171700-
SOUTHWEST INDIANA

CITY           SKY/WX    TMP DP  RH WIND       PRES   REMARKS
EVANSVILLE     SUNNY     60  41  49 S8        30.39F
HUNTINGBURG +  SUNNY     61  40  45 S8        30.38F
WASHINGTON +   SUNNY     62  35  37 SW12      30.37S

$$

INZ062-063-066-070>080-084-089>092-171700-
SOUTH CENTRAL AND SOUTHEAST INDIANA

CITY           SKY/WX    TMP DP  RH WIND       PRES   REMARKS
BEDFORD +      SUNNY     61  36  39 SE8       30.36F
BLOOMINGTON    SUNNY     61  36  39 SW12      30.36F
MADISON *+     SUNNY     61  34  36 S7        30.40F
NORTH VERNON + SUNNY     61  37  41 S10       30.38F
SEYMOUR +      SUNNY     63  39  42 SW9       30.37F

$$





USA.gov is the U.S. government's official web portal to all federal, state and local government web resources and services.